Location: Unspecified
(43.8044°N, 11.0278°E)
Time: 23:11:52
(UTC+02:00)

Okean 3 - Visible Passes

Search period start: 30 June 2016 00:00
Search period end: 10 July 2016 00:00
Orbit: 579 x 603 km, 82.5° (Epoch: 30 June)

Date Brightness Start Highest point End Pass type
(mag) Time Alt. Az. Time Alt. Az. Time Alt. Az.
30 Jun 5.6 00:30:22 10° NNE 00:33:08 16° ENE 00:34:16 15° E visible
30 Jun 3.9 02:06:32 10° NNW 02:10:40 46° W 02:10:49 46° W visible
01 Jul 5.1 00:38:18 10° NNE 00:41:48 23° ENE 00:42:36 22° E visible
01 Jul 4.6 02:15:17 10° NNW 02:19:05 31° W 02:19:10 31° W visible
02 Jul 4.6 00:46:28 10° N 00:50:25 34° ENE 00:50:57 33° E visible
02 Jul 5.2 02:24:12 10° NW 02:27:28 21° W 02:27:31 21° W visible
03 Jul 3.9 00:54:46 10° N 00:59:00 50° ENE 00:59:19 49° E visible
03 Jul 5.6 02:33:27 10° NW 02:35:49 14° W 02:35:53 14° W visible
04 Jul 3.4 01:03:11 10° N 01:07:32 77° E 01:07:42 75° ESE visible
04 Jul 5.9 23:36:48 10° NE 23:38:13 11° ENE 23:39:31 10° E visible
05 Jul 3.5 01:11:42 10° NNW 01:16:02 71° W 01:16:05 71° WSW visible
05 Jul 5.5 23:44:10 10° NNE 23:46:56 16° ENE 23:47:55 15° E visible
06 Jul 4.0 01:20:20 10° NNW 01:24:29 46° W 01:24:29 46° W visible
06 Jul 5.0 23:52:05 10° NNE 23:55:36 23° ENE 23:56:19 22° E visible
07 Jul 4.7 01:29:05 10° NNW 01:32:54 31° W 01:32:54 31° W visible
08 Jul 4.5 00:00:15 10° N 00:04:13 34° ENE 00:04:45 33° E visible
08 Jul 5.3 01:38:00 10° NW 01:41:16 21° W 01:41:18 21° W visible
09 Jul 3.8 00:08:34 10° N 00:12:48 50° ENE 00:13:10 49° E visible
09 Jul 5.7 01:47:14 10° NW 01:49:35 14° W 01:49:44 14° W visible
